[[{"header":{"parameterUnit":"m.s-1","parameterCategory":1,"la1":30.2991,"la2":30.254,"lo1":-89.0895,"lo2":-89.0444,"dy":0.0017,"dx":0.0017,"nx":28,"ny":28,"refTime":"2024-12-17T09:00:00:Z","depth":0,"parameterNumber":2,"parameterNumberName":"U-component_of_WINDS"},"data":[0,0,0,0,0,0,0,0,0,0,0,0,0,0,0,0,0,0,0,0,0,0,0,0,0,0,0,0,0,0,0,0,0,0,0,0,0,0,0,0,0,0,0,0,0,0,0,0,0,0,0,0,0,0,0,0,0,0,-1.655,-1.655,0,-1.6535,-1.6534,-1.6534,-1.6458,-1.6456,-1.6455,-1.6453,-1.644,-1.6442,-1.6443,0,0,0,0,0,0,0,0,0,0,0,0,0,-1.6517,-1.6518,-1.655,-1.655,-1.655,-1.6535,-1.6534,-1.6534,-1.6458,-1.6456,-1.6454,-1.6452,-1.644,-1.6441,-1.6443,0,0,0,0,0,0,0,0,0,0,0,0,0,-1.652,-1.6519,-1.655,-1.651,-1.6506,-1.6535,-1.6534,-1.6534,-1.6459,-1.6456,-1.6453,-1.6451,-1.6439,-1.6441,-1.6443,-1.651,0,0,-1.6449,-1.645,0,0,0,0,0,0,0,0,-1.652,-1.6521,-1.6516,-1.6513,-1.6509,-1.6495,-1.6518,-1.6526,-1.646,-1.6477,-1.6453,-1.645,-1.6461,-1.6461,-1.6464,-1.6509,-1.6509,-1.645,-1.6451,-1.6452,-1.6452,0,0,0,0,0,0,0,-1.652,-1.6521,-1.6544,-1.6516,-1.6512,-1.6494,-1.6491,-1.6519,-1.6485,-1.6475,-1.647,-1.6469,-1.6458,-1.6462,-1.6463,-1.6509,-1.645,-1.6451,-1.6453,-1.6453,-1.6608,-1.6611,0,0,0,0,0,0,-1.6525,-1.6522,-1.6545,-1.6544,-1.6508,-1.6497,-1.6494,-1.6503,-1.6484,-1.6479,-1.6471,-1.6465,-1.646,-1.6461,-1.6463,-1.654,-1.6452,-1.6454,-1.6455,-1.6605,-1.6609,-1.6612,0,0,0,0,0,0,-1.6524,-1.6527,-1.6545,-1.6531,-1.6532,-1.65,-1.6511,-1.6504,-1.6507,-1.6481,-1.6475,-1.6481,-1.6458,-1.646,-1.6499,-1.6539,-1.6454,-1.6456,-1.6602,-1.6606,-1.661,-1.6695,0,0,0,0,0,0,-1.6524,-1.6528,-1.6552,-1.6532,-1.6533,-1.6581,-1.6513,-1.6505,-1.6511,-1.6503,-1.6489,-1.6484,-1.6456,-1.6496,-1.6501,-1.654,-1.6458,-1.6598,-1.6604,-1.6609,-1.6689,-1.6702,-1.6713,0,0,0,0,0,-1.6523,-1.6578,-1.6554,-1.6557,-1.6563,-1.6583,-1.6584,-1.655,-1.6514,-1.6539,-1.6522,-1.6484,-1.6533,-1.6501,-1.6505,-1.6546,-1.6595,-1.6602,-1.6609,-1.6683,-1.67,-1.6713,0,0,0,0,0,0,-1.6604,-1.6574,-1.6548,-1.6597,-1.6593,-1.6571,-1.6601,-1.6568,-1.6575,-1.6568,-1.6526,-1.6524,-1.6569,-1.6561,-1.6525,-1.6609,-1.6558,-1.6566,-1.6613,-1.6628,-1.664,-1.6642,-1.646,0,0,0,0,0,-1.6628,-1.6646,-1.6619,-1.6666,-1.6665,-1.6633,-1.6641,-1.6615,-1.661,-1.6608,-1.6594,-1.6591,-1.6605,-1.6616,-1.6628,-1.6687,-1.6683,-1.6717,-1.6729,-1.6739,-1.6747,-1.6778,-1.6793,-1.6633,-1.6633,-1.6633,0,0,-1.6678,-1.6663,-1.6678,-1.6682,-1.6676,-1.6697,-1.6633,-1.6657,-1.6673,-1.6612,-1.6648,-1.6637,-1.6631,-1.6681,-1.6702,-1.6675,-1.679,-1.6748,-1.6756,-1.6758,-1.6786,-1.6801,-1.6815,-1.6638,-1.6637,-1.6636,0,0,-1.6778,-1.6769,-1.6807,-1.6802,-1.6793,-1.6771,-1.678,-1.6762,-1.6752,-1.6787,-1.6742,-1.676,-1.6786,-1.6784,-1.6786,-1.6886,-1.6852,-1.6891,-1.6955,-1.6986,-1.6999,-1.701,-1.7046,-1.706,-1.6898,-1.6898,-1.6898,0,-1.6842,-1.687,-1.6831,-1.6858,-1.6862,-1.6806,-1.6845,-1.6842,-1.6839,-1.6843,-1.6813,-1.6844,-1.6836,-1.6884,-1.6908,-1.6912,-1.6922,-1.6893,-1.7,-1.701,-1.702,-1.7054,-1.7068,-1.6903,-1.6903,-1.6902,-1.6902,0,-1.6948,-1.6969,-1.7001,-1.6997,-1.7004,-1.7037,-1.7004,-1.7016,-1.6989,-1.6971,-1.7008,-1.6996,-1.7005,-1.7014,-1.6988,-1.7059,-1.7042,-1.7007,-1.6955,-1.7041,-1.7073,-1.7085,-1.691,-1.6908,-1.6907,-1.6906,0,0,-1.7102,-1.7075,-1.7088,-1.7085,-1.7071,-1.7087,-1.7117,-1.7125,-1.7136,-1.7135,-1.7161,-1.7183,-1.715,-1.7153,-1.7126,-1.7153,-1.7234,-1.7114,-1.7113,-1.7138,-1.7312,-1.734,-1.7356,-1.721,-1.7213,-1.7215,-1.7312,0,-1.7199,-1.7249,-1.7215,-1.7271,-1.729,-1.7237,-1.7264,-1.7259,-1.7243,-1.7257,-1.7239,-1.7256,-1.7211,-1.7212,-1.7236,-1.7219,-1.7268,-1.7211,-1.7235,-1.7237,-1.724,-1.7372,-1.7401,-1.7495,-1.7324,-1.7327,-1.7328,0,-1.732,-1.7323,-1.7381,-1.7363,-1.7369,-1.7394,-1.7398,-1.7412,-1.7405,-1.7391,-1.7394,-1.7361,-1.739,-1.7338,-1.7379,-1.7341,-1.7348,-1.7341,-1.7344,-1.7347,-1.7289,-1.7379,-1.7523,-1.7538,-1.7347,-1.7345,-1.7344,0,-1.7428,-1.7446,-1.7483,-1.7483,-1.7462,-1.7481,-1.7473,-1.7463,-1.747,-1.7474,-1.7478,-1.7485,-1.749,-1.7497,-1.7467,-1.7431,-1.7512,-1.7457,-1.7503,-1.7504,-1.7524,-1.7523,-1.7673,-1.7527,-1.7526,-1.7526,-1.7526,0,-1.7541,-1.7579,-1.7531,-1.7555,-1.7596,-1.7555,-1.7597,-1.7584,-1.7576,-1.7596,-1.7551,-1.7571,-1.7529,-1.7546,-1.7522,-1.7561,-1.7563,-1.7553,-1.7547,-1.7558,-1.756,-1.7564,-1.7557,-1.753,-1.7529,-1.7528,-1.7528,0,-1.7669,-1.7638,-1.7675,-1.7652,-1.7647,-1.7679,-1.7659,-1.768,-1.766,-1.7687,-1.7691,-1.766,-1.7677,-1.7647,-1.766,-1.7644,-1.7698,-1.7681,-1.7701,-1.7696,-1.7744,-1.7741,-1.7903,-1.7923,-1.7763,-1.7764,-1.7766,0,-1.7744,-1.7771,-1.7751,-1.7761,-1.7755,-1.7772,-1.7778,-1.7739,-1.7748,-1.7741,-1.7764,-1.7776,-1.7784,-1.7814,-1.7794,-1.7804,-1.7787,-1.7843,-1.7789,-1.7799,-1.779,-1.7789,-1.7792,-1.7856,-1.7857,-1.7859,-1.786,0,-1.788,-1.7864,-1.7874,-1.7879,-1.7887,-1.789,-1.7889,-1.79,-1.7859,-1.7871,-1.7887,-1.7893,-1.7906,-1.792,-1.7925,-1.7918,-1.7883,-1.7877,-1.7889,-1.7901,-1.7912,-1.7908,-1.7733,-1.7874,-1.7873,-1.7872,-1.7871,-1.7871,-1.7985,-1.8007,-1.7996,-1.8009,-1.8004,-1.8004,-1.8023,-1.8005,-1.8017,-1.8024,-1.8,-1.8022,-1.8014,-1.8017,-1.8014,-1.8031,-1.8006,-1.8022,-1.8027,-1.8032,-1.804,-1.7908,-1.8032,-1.8031,-1.8031,-1.803,-1.803,0,-1.812,-1.811,-1.8122,-1.8122,-1.8132,-1.8097,-1.8094,-1.8105,-1.8125,-1.812,-1.8128,-1.8147,-1.816,-1.814,-1.815,-1.8168,-1.8152,-1.8172,-1.8171,-1.817,-1.8061,-1.8051,-1.8184,-1.8184,-1.8184,-1.8184,-1.8184,-1.8184,-1.8192,-1.8228,-1.821,-1.8244,-1.8233,-1.8253,-1.8255,-1.8255,-1.8251,-1.8274,-1.8284,-1.827,-1.826,-1.8268,-1.8279,-1.8272,-1.8279,-1.8305,-1.8293,-1.8192,-1.8177,-1.8163,-1.8153,-1.8306,-1.8306,-1.8401,-1.8402,-1.8402]},{"header":{"parameterUnit":"m.s-1","parameterCategory":1,"la1":30.2991,"la2":30.254,"lo1":-89.0895,"lo2":-89.0444,"dy":0.0017,"dx":0.0017,"nx":28,"ny":28,"refTime":"2024-12-17T09:00:00:Z","depth":0,"parameterNumber":3,"parameterNumberName":"V-component_of_WINDS"},"data":[0,0,0,0,0,0,0,0,0,0,0,0,0,0,0,0,0,0,0,0,0,0,0,0,0,0,0,0,0,0,0,0,0,0,0,0,0,0,0,0,0,0,0,0,0,0,0,0,0,0,0,0,0,0,0,0,0,0,-1.3708,-1.3708,0,-1.3729,-1.3729,-1.3729,-1.3705,-1.3704,-1.3703,-1.3702,-1.3723,-1.3724,-1.3726,0,0,0,0,0,0,0,0,0,0,0,0,0,-1.3647,-1.3648,-1.3708,-1.3708,-1.3709,-1.3729,-1.3729,-1.3729,-1.3705,-1.3704,-1.3703,-1.3702,-1.3722,-1.3724,-1.3726,0,0,0,0,0,0,0,0,0,0,0,0,0,-1.3671,-1.3649,-1.3708,-1.3699,-1.3698,-1.3729,-1.3729,-1.3729,-1.3705,-1.3704,-1.3703,-1.3701,-1.3722,-1.3724,-1.3726,-1.3766,0,0,-1.3732,-1.3733,0,0,0,0,0,0,0,0,-1.367,-1.3673,-1.37,-1.37,-1.3699,-1.3713,-1.3715,-1.3742,-1.3706,-1.3703,-1.3702,-1.3701,-1.3721,-1.3723,-1.373,-1.3767,-1.3768,-1.3733,-1.3734,-1.3735,-1.3735,0,0,0,0,0,0,0,-1.3668,-1.3672,-1.3716,-1.3701,-1.37,-1.3694,-1.3696,-1.372,-1.3719,-1.3703,-1.3701,-1.3704,-1.372,-1.3728,-1.373,-1.3768,-1.3732,-1.3734,-1.3736,-1.3736,-1.3838,-1.384,0,0,0,0,0,0,-1.3668,-1.3671,-1.3716,-1.3717,-1.3681,-1.3696,-1.3698,-1.371,-1.3719,-1.3719,-1.3705,-1.3703,-1.3725,-1.3727,-1.373,-1.3778,-1.3735,-1.3737,-1.3738,-1.3837,-1.3839,-1.384,0,0,0,0,0,0,-1.3666,-1.3672,-1.3715,-1.3694,-1.3698,-1.3698,-1.3712,-1.3711,-1.3718,-1.372,-1.372,-1.3713,-1.3724,-1.3728,-1.3757,-1.3778,-1.3738,-1.3739,-1.3835,-1.3837,-1.3839,-1.3872,0,0,0,0,0,0,-1.3665,-1.3671,-1.3687,-1.3694,-1.37,-1.3742,-1.3713,-1.3712,-1.3722,-1.3719,-1.3728,-1.3728,-1.3723,-1.3754,-1.3759,-1.378,-1.3741,-1.3833,-1.3836,-1.3839,-1.387,-1.3875,-1.3881,0,0,0,0,0,-1.3663,-1.3695,-1.3688,-1.3693,-1.3719,-1.3743,-1.3746,-1.374,-1.3724,-1.3739,-1.374,-1.3728,-1.3775,-1.3757,-1.3763,-1.3785,-1.3832,-1.3835,-1.3839,-1.3867,-1.3874,-1.388,0,0,0,0,0,0,-1.3691,-1.3696,-1.3688,-1.3724,-1.3733,-1.3739,-1.3758,-1.3748,-1.3762,-1.3759,-1.375,-1.3752,-1.3784,-1.3787,-1.3768,-1.3823,-1.3801,-1.3805,-1.382,-1.3827,-1.3833,-1.3832,-1.3743,0,0,0,0,0,-1.3701,-1.3721,-1.3724,-1.3756,-1.376,-1.3759,-1.3769,-1.3763,-1.3772,-1.3776,-1.3779,-1.3788,-1.3805,-1.3816,-1.3832,-1.3869,-1.3871,-1.3887,-1.3893,-1.3897,-1.3901,-1.3921,-1.3929,-1.3851,-1.3851,-1.3851,0,0,-1.3723,-1.3729,-1.3741,-1.3761,-1.3768,-1.3787,-1.3762,-1.3784,-1.3798,-1.3779,-1.3807,-1.381,-1.3819,-1.3853,-1.3868,-1.3857,-1.3923,-1.3901,-1.3905,-1.3907,-1.3926,-1.3933,-1.3939,-1.3853,-1.3853,-1.3852,0,0,-1.3773,-1.3779,-1.3806,-1.3813,-1.3823,-1.3821,-1.3828,-1.3834,-1.3835,-1.3864,-1.3849,-1.3866,-1.3895,-1.3902,-1.391,-1.3961,-1.395,-1.3967,-1.3996,-1.4016,-1.4022,-1.4027,-1.4046,-1.4052,-1.3971,-1.3971,-1.3971,0,-1.38,-1.3829,-1.3821,-1.3844,-1.3853,-1.3836,-1.3863,-1.387,-1.3885,-1.3891,-1.3878,-1.3914,-1.3919,-1.3954,-1.3967,-1.3973,-1.398,-1.3966,-1.4021,-1.4027,-1.4032,-1.4049,-1.4056,-1.3973,-1.3973,-1.3972,-1.3972,0,-1.386,-1.3881,-1.3901,-1.3916,-1.3927,-1.3952,-1.3947,-1.396,-1.3953,-1.3952,-1.3981,-1.3986,-1.4002,-1.401,-1.4004,-1.4044,-1.4037,-1.4023,-1.4,-1.4041,-1.4058,-1.4064,-1.3976,-1.3975,-1.3974,-1.3974,0,0,-1.393,-1.3939,-1.3947,-1.3953,-1.3962,-1.3978,-1.4001,-1.4017,-1.4028,-1.4038,-1.4057,-1.4082,-1.4069,-1.4077,-1.4071,-1.4088,-1.4129,-1.4072,-1.4072,-1.4083,-1.4174,-1.4185,-1.4193,-1.4121,-1.4122,-1.4123,-1.4173,0,-1.3981,-1.4022,-1.4015,-1.4055,-1.4074,-1.4058,-1.4078,-1.4086,-1.4085,-1.4101,-1.41,-1.4118,-1.4099,-1.4104,-1.412,-1.4121,-1.4147,-1.4117,-1.4139,-1.414,-1.4138,-1.4202,-1.4214,-1.4261,-1.418,-1.4181,-1.4182,0,-1.4046,-1.4058,-1.41,-1.4106,-1.4113,-1.4132,-1.4145,-1.416,-1.4168,-1.4167,-1.4176,-1.4166,-1.4189,-1.4165,-1.4197,-1.4176,-1.4185,-1.4186,-1.4188,-1.419,-1.4164,-1.4206,-1.4276,-1.4283,-1.4191,-1.4191,-1.419,0,-1.4093,-1.412,-1.4148,-1.4154,-1.4161,-1.4175,-1.4178,-1.4185,-1.4194,-1.4206,-1.4212,-1.4226,-1.4234,-1.4245,-1.424,-1.4223,-1.4272,-1.4248,-1.4272,-1.4272,-1.4284,-1.4283,-1.4356,-1.4288,-1.4288,-1.4288,-1.4288,0,-1.415,-1.4177,-1.417,-1.4187,-1.4216,-1.4207,-1.4236,-1.4238,-1.4243,-1.4261,-1.4247,-1.4263,-1.4254,-1.427,-1.4266,-1.4293,-1.4296,-1.4295,-1.4294,-1.4297,-1.4297,-1.4303,-1.43,-1.429,-1.4289,-1.4289,-1.4289,0,-1.4209,-1.4205,-1.4235,-1.4239,-1.424,-1.4262,-1.4265,-1.4281,-1.4279,-1.4301,-1.4306,-1.4303,-1.4321,-1.4316,-1.4335,-1.4332,-1.4366,-1.436,-1.4364,-1.4363,-1.4387,-1.4385,-1.4467,-1.4477,-1.4402,-1.4403,-1.4403,0,-1.4246,-1.4266,-1.4272,-1.4283,-1.4287,-1.4304,-1.4314,-1.4306,-1.4317,-1.4327,-1.4342,-1.4358,-1.4371,-1.4399,-1.4399,-1.4413,-1.4408,-1.4436,-1.441,-1.4413,-1.4409,-1.4408,-1.441,-1.4441,-1.4442,-1.4443,-1.4443,0,-1.4313,-1.431,-1.4325,-1.4339,-1.4351,-1.4361,-1.4371,-1.438,-1.4372,-1.4385,-1.4403,-1.4413,-1.4432,-1.4448,-1.4461,-1.4464,-1.4453,-1.4451,-1.4458,-1.4461,-1.4463,-1.4463,-1.4378,-1.445,-1.4449,-1.4449,-1.4448,-1.4448,-1.4362,-1.4379,-1.4386,-1.4403,-1.4409,-1.4417,-1.4433,-1.4433,-1.4447,-1.4463,-1.4456,-1.4477,-1.4483,-1.45,-1.4504,-1.452,-1.4509,-1.4519,-1.4521,-1.4524,-1.4527,-1.4459,-1.4522,-1.4522,-1.4522,-1.4522,-1.4521,0,-1.4429,-1.4432,-1.4448,-1.4461,-1.4474,-1.4461,-1.4471,-1.4482,-1.4501,-1.4508,-1.452,-1.454,-1.4556,-1.4556,-1.4571,-1.4583,-1.4578,-1.4587,-1.4587,-1.4588,-1.4535,-1.4529,-1.4591,-1.4591,-1.4591,-1.4591,-1.4591,-1.4591,-1.4466,-1.4493,-1.4491,-1.4521,-1.4524,-1.4544,-1.455,-1.4558,-1.4564,-1.4587,-1.46,-1.46,-1.4604,-1.4618,-1.4632,-1.4631,-1.4638,-1.4649,-1.4647,-1.4598,-1.4591,-1.4585,-1.4578,-1.465,-1.465,-1.4698,-1.4698,-1.4698]}]]